Weather History for Lander, WY

Change the Weather History Date:

Sunday, October 6, 2013

  Actual Average Record
Temperature  
Mean Temperature 37 °F 49 °F  
Max Temperature 50 °F 63 °F 83 °F (1975)
Min Temperature 24 °F 36 °F 14 °F (2009)
Degree Days  
Heating Degree Days 28 16  
Month to date heating degree days 160 88  
Since 1 July heating degree days 352 347  
Cooling Degree Days 0 0  
Month to date cooling degree days 0 0  
Year to date cooling degree days 743 472  
Moisture  
Dew Point 29 °F    
Average Humidity 74    
Maximum Humidity 92    
Minimum Humidity 56    
Precipitation  
Precipitation 0.00 in 0.04 in 0.58 in (1970)
Month to date precipitation 1.66 0.28  
Year to date precipitation 13.30 10.21  
Snow  
Snow 0.00 in 0.20 in - ()
Month to date snowfall 12.3 1.5  
Since 1 July snowfall 16.4 4.2  
Since 1 September snowfall 16.4 4.2  
Snow Depth 3.00 in    
Sea Level Pressure  
Sea Level Pressure 30.32 in    
Wind  
Wind Speed 2 mph (WSW)    
Max Wind Speed 9 mph    
Max Gust Speed 9 mph    
Visibility 10 miles    
Events      
T = Trace of Precipitation, MM = Missing Value Source: NWS Daily Summary

Daily Weather History Graph

Daily Weather History Graph

Search for Another Location

Airport:

Trip Planner

Search our weather history database for the weather conditions in past years. The results will help you decide how hot, cold, wet, or windy it might be!

Date:

Astronomy

Oct. 06, 2013 Rise Set
Actual Time 7:18 AM MDT 6:46 PM MDT
Civil Twilight 6:49 AM MDT 7:15 PM MDT
Nautical Twilight 6:17 AM MDT 7:47 PM MDT
Astronomical Twilight 5:44 AM MDT 8:20 PM MDT
Moon 9:09 AM MDT (10/6) 7:44 PM MDT (10/6)
Length of Visible Light 12h 25m
Length of Day
11h 28m
Waxing Crescent, 4% of the Moon is Illuminated
Oct 6
Waxing Crescent
Oct 11
First Quarter
Oct 18
Full
Oct 26
Last Quarter
Nov 3
New

Hourly Weather History & Observations

Time (MDT) Temp. Windchill Dew Point Humidity Pressure Visibility Wind Dir Wind Speed Gust Speed Precip Events Conditions
12:53 AM 33.1 °F - 24.1 °F 70% 30.39 in 10.0 mi Calm Calm - N/A   Clear
1:53 AM 30.0 °F - 25.0 °F 82% 30.40 in 10.0 mi Calm Calm - N/A   Clear
2:53 AM 30.0 °F 26.5 °F 24.1 °F 79% 30.38 in 10.0 mi West 3.5 mph - N/A   Clear
3:53 AM 28.0 °F - 23.0 °F 81% 30.37 in 10.0 mi Calm Calm - N/A   Clear
4:53 AM 28.9 °F 23.9 °F 24.1 °F 82% 30.36 in 10.0 mi NNW 4.6 mph - N/A   Clear
5:53 AM 32.0 °F 27.5 °F 25.0 °F 75% 30.37 in 10.0 mi North 4.6 mph - N/A   Clear
6:53 AM 28.9 °F 23.9 °F 24.1 °F 82% 30.38 in 10.0 mi West 4.6 mph - N/A   Clear
7:53 AM 27.0 °F - 24.1 °F 89% 30.38 in 10.0 mi Calm Calm - N/A   Clear
8:53 AM 34.0 °F - 26.1 °F 73% 30.37 in 10.0 mi Calm Calm - N/A   Clear
9:53 AM 37.0 °F - 28.0 °F 70% 30.36 in 9.0 mi Calm Calm - N/A   Clear
10:53 AM 33.1 °F - 28.0 °F 82% 30.39 in 8.0 mi Calm Calm - N/A   Clear
11:53 AM 37.0 °F 34.5 °F 28.0 °F 70% 30.36 in 10.0 mi East 3.5 mph - N/A   Clear
12:53 PM 39.9 °F - 30.0 °F 68% 30.33 in 10.0 mi Calm Calm - N/A   Clear
1:53 PM 44.1 °F - 32.0 °F 63% 30.30 in 10.0 mi Calm Calm - N/A   Clear
2:53 PM 46.0 °F - 33.1 °F 61% 30.29 in 10.0 mi Calm Calm - N/A   Clear
3:53 PM 48.9 °F - 34.0 °F 56% 30.27 in 10.0 mi Calm Calm - N/A   Clear
4:53 PM 46.9 °F - 37.0 °F 68% 30.27 in 10.0 mi SSW 3.5 mph - N/A   Clear
5:53 PM 48.0 °F - 37.0 °F 66% 30.25 in 10.0 mi West 3.5 mph - N/A   Clear
6:53 PM 45.0 °F 43.5 °F 35.1 °F 68% 30.27 in 10.0 mi SW 3.5 mph - N/A   Clear
7:53 PM 43.0 °F 40.3 °F 34.0 °F 71% 30.28 in 10.0 mi WSW 4.6 mph - N/A   Clear
8:53 PM 39.0 °F - 34.0 °F 82% 30.26 in 10.0 mi Calm Calm - N/A   Clear
9:53 PM 37.0 °F - 32.0 °F 82% 30.25 in 10.0 mi Calm Calm - N/A   Clear
10:53 PM 39.0 °F 34.8 °F 32.0 °F 76% 30.25 in 10.0 mi SW 5.8 mph - N/A   Clear
11:53 PM 37.9 °F 35.5 °F 33.1 °F 83% 30.22 in 10.0 mi SE 3.5 mph - N/A   Clear